STARLINK-2239

Last updated on Sat Apr 24 2021 00:02:02 GMT+0000 (Coordinated Universal Time)

1 48017U 21024AS 21113.25001157 .00074107 00000-0 52758-3 0 9997 2 48017 53.0485 55.6635 0001341 78.3772 90.9417 15.73205166 1827

Satellite not in orbit